sat.trackr.live / text

‹ back to catalog

STARLINK-30963

NORAD 58444 · 2023-183H

PAYLOAD ACTIVE UNKNOWN

§ Identity

Operator
Country
US
Launch date
2023-11-28
Launch site
AFETR
Launch vehicle
Mass (kg)
RCS (m²)

Purposes: comms

External: N2YO · Heavens-Above · Gunter

§ Orbital elements

Epoch: 2026-09-20T07:44:34.387008Z

Period
94.27 min
Inclination
43.0051°
Eccentricity
0.0001412
Mean motion
15.27575317 rev/d
Perigee alt
482.1 km
Apogee alt
484.0 km
Semi-major
6,861.2 km
B*
2.6232e-6
RAAN
22.1965°
Arg perigee
277.3198°
Mean anomaly
82.7493°
Rev number
15,650

§ Raw data

STARLINK-309631 58444U 23183H   26263.32262022 -.00000190  00000+0  26232-5 0  99902 58444  43.0051  22.1965 0001412 277.3198  82.7493 15.27575317156503

JSON: /api/v1/satellites/58444 · /tle

For live sub-satellite position, see the globe view (requires WebGL).

§ Visibility from observer

Set your observer location to see the next 7 days of passes ≥ 10°. The values pass through the URL so the page stays shareable.

No JS? Fill the form by hand. The geolocation button needs JavaScript.